Location: Palmerston North
(40.3500°S, 175.6170°E)
Time: 09:10:17
(UTC+13:00)

Atlas Centaur 2 - Pass Details

Date: 24 January 2019
Orbit: 459 x 1311 km, 30.4° (Epoch: 16 February)

Event Time Altitude Azimuth Distance (km) Brightness Sun altitude
Rises 22:21:35 0° 291° (WNW) 4,203 6.2 -16.1°
Reaches altitude 10° 22:24:38 10° 297° (WNW) 3,291 5.5 -16.5°
Maximum altitude 22:32:28 42° 3° (N) 1,794 3.5 -17.6°
Enters shadow 22:36:40 26° 55° (NE) 2,315 3.9 -18.1°
